GW2259 Weather Reports


Display with metric or nautical units.
time (UTC)temp
F
wind
direction
speed
MPH
gust
MPH
rain 1hr
in
rain 24hr
in
rain mn
in
humidity
%
barometer
mb
20260508193036 76 210 3.0 10.0 0.00 0.72 0.00 78 1010.1
20260508191532 75 207 3.0 6.0 0.00 0.72 0.00 78 1010.2
20260508190042 74 240 0.0 8.0 0.00 0.72 0.00 80 1010.2
20260508184538 75 166 0.0 5.0 0.00 0.90 0.00 81 1010.4
20260508183032 74 229 3.0 11.0 0.00 0.90 0.00 79 1010.7
20260508181539 73 218 3.0 8.0 0.00 0.90 0.00 86 1010.9
20260508180032 71 220 4.0 9.0 0.00 0.90 0.00 93 1011.3
20260508174538 70 126 3.0 7.0 0.00 0.91 0.00 94 1011.5
20260508173032 69 184 7.0 11.0 0.00 0.91 0.00 94 1011.9
20260508171535 68 225 6.0 9.0 0.00 0.91 0.00 93 1011.9
20260508170035 68 157 5.0 11.0 0.00 0.91 0.00 94 1012.1
20260508164538 68 193 3.0 7.0 0.00 1.68 0.00 95 1012.3
20260508163033 66 142 3.0 8.0 0.00 1.68 0.00 94 1012.7
20260508161535 65 143 6.0 9.0 0.00 1.68 0.00 95 1012.9
20260508160035 63 191 5.0 10.0 0.00 1.68 0.00 95 1013.1
20260508154533 63 138 3.0 7.0 0.00 1.68 0.00 95 1013.2
20260508153033 62 207 3.0 5.0 0.00 1.68 0.00 95 1013.4
20260508151535 61 146 4.0 6.0 0.00 1.68 0.00 95 1013.7
20260508150041 60 164 3.0 6.0 0.00 1.68 0.00 96 1013.8
20260508144537 60 126 2.0 4.0 0.00 1.68 0.00 96 1013.7
20260508143036 59 191 1.0 3.0 0.00 1.68 0.00 96 1013.6
20260508141538 58 157 1.0 4.0 0.00 1.68 0.00 96 1013.8
20260508140033 57 131 2.0 3.0 0.00 1.68 0.00 96 1013.9
20260508134537 56 119 2.0 5.0 0.00 1.68 0.00 96 1014.2
20260508133037 56 92 2.0 4.0 0.00 1.68 0.00 97 1014.3
20260508131532 56 120 2.0 3.0 0.00 1.68 0.00 97 1014.2
20260508130056 56 127 2.0 3.0 0.00 1.68 0.00 97 1014.2
20260508124535 55 0 1.0 3.0 0.00 1.68 0.00 97 1014.2
20260508123035 55 103 1.0 3.0 0.00 1.68 0.00 96 1014.2
20260508121535 55 0 0.0 1.0 0.00 1.68 0.00 97 1013.9
20260508120032 55 0 0.0 0.0 0.00 1.68 0.00 97 1013.8
20260508114535 55 0 0.0 0.0 0.00 1.68 0.00 97 1013.9
20260508113038 55 0 0.0 2.0 0.00 1.68 0.00 97 1014.0
20260508111535 55 0 0.0 0.0 0.00 1.68 0.00 96 1014.1
20260508110037 55 0 0.0 3.0 0.00 1.68 0.00 97 1014.2
20260508104557 55 150 2.0 5.0 0.00 1.68 0.00 96 1013.8
20260508103043 55 141 4.0 6.0 0.00 1.68 0.00 97 1013.8
20260508101535 55 0 1.0 3.0 0.00 1.68 0.00 96 1013.9
20260508100037 55 0 0.0 4.0 0.00 1.68 0.00 97 1014.4
20260508094534 55 104 4.0 6.0 0.00 1.68 0.00 97 1014.2
20260508093033 55 120 2.0 3.0 0.00 1.68 0.00 97 1014.3
20260508091538 55 0 0.0 0.0 0.00 1.68 0.00 97 1014.3
20260508090037 55 0 0.0 3.0 0.00 1.68 0.00 97 1014.4
20260508084536 55 65 2.0 5.0 0.00 1.68 0.00 97 1014.4
20260508083046 55 0 1.0 4.0 0.00 1.68 0.00 97 1014.8
20260508081552 54 349 1.0 3.0 0.00 1.68 0.00 97 1015.1
20260508080039 54 0 0.0 3.0 0.00 1.68 0.00 97 1015.0
20260508074535 54 0 0.0 3.0 0.00 1.68 0.00 97 1015.0
20260508073035 54 0 0.0 1.0 0.00 1.68 0.00 97 1014.9
20260508071535 54 0 0.0 2.0 0.00 1.68 0.00 97 1015.0
20260508070054 54 0 0.0 2.0 0.00 1.68 0.00 97 1015.1
20260508064538 54 0 0.0 3.0 0.00 1.68 0.00 97 1014.6
20260508063036 54 49 2.0 3.0 0.00 1.68 0.00 97 1014.2
20260508061532 54 0 1.0 3.0 0.00 1.68 0.00 97 1014.8
20260508060038 54 309 0.0 2.0 0.00 1.68 0.00 97 1014.9
20260508054536 53 3 0.0 1.0 0.00 1.68 0.00 97 1014.9
20260508053037 53 0 0.0 2.0 0.00 1.68 0.00 97 1015.0
20260508051535 54 0 0.0 2.0 0.00 1.68 0.00 97 1015.0
20260508050035 54 95 2.0 3.0 0.00 1.68 0.00 97 1015.1
20260508044537 54 67 1.0 3.0 0.00 1.68 1.68 97 1015.5
20260508043052 54 0 0.0 0.0 0.00 1.68 1.68 97 1015.9
20260508041535 54 0 0.0 0.0 0.00 1.68 1.68 97 1016.0
20260508040032 54 0 0.0 0.0 0.00 1.68 1.68 97 1016.1
20260508034537 54 0 0.0 0.0 0.00 1.68 1.68 97 1015.8
20260508033034 54 0 0.0 1.0 0.00 1.68 1.68 97 1015.7
20260508031533 54 0 0.0 1.0 0.00 1.68 1.68 97 1015.6
20260508030045 54 99 1.0 2.0 0.00 1.68 1.68 97 1015.4
20260508024534 54 0 0.0 2.0 0.00 1.68 1.68 97 1015.5
20260508023041 54 104 0.0 2.0 0.00 1.68 1.68 97 1015.3
20260508021538 54 0 0.0 1.0 0.00 1.68 1.68 97 1015.6
20260508020035 54 119 0.0 3.0 0.00 1.68 1.68 97 1015.7
20260508014535 54 93 1.0 2.0 0.00 1.68 1.68 96 1015.0
20260508013034 54 65 0.0 3.0 0.00 1.68 1.68 96 1014.9
20260508011539 54 116 2.0 3.0 0.00 1.68 1.68 96 1014.6
20260508010036 54 358 0.0 2.0 0.00 1.68 1.68 96 1015.0
20260508004535 54 28 2.0 3.0 0.00 1.68 1.68 96 1014.9
20260508003034 54 63 3.0 5.0 0.00 1.68 1.68 96 1015.0
20260508001531 54 66 4.0 7.0 0.00 1.68 1.68 96 1014.7
20260508000038 54 25 2.0 6.0 0.00 1.68 1.68 96 1014.9
20260507234541 54 41 2.0 4.0 0.00 1.68 1.68 96 1015.0
20260507233035 54 41 3.0 5.0 0.00 1.68 1.68 96 1015.3
20260507231535 54 41 2.0 6.0 0.00 1.68 1.68 96 1015.9
20260507230032 54 56 3.0 6.0 0.00 1.68 1.68 96 1016.1
20260507224536 54 50 2.0 6.0 0.00 1.68 1.68 96 1016.2
20260507223036 54 39 3.0 6.0 0.00 1.68 1.68 96 1016.0
20260507221533 54 28 2.0 4.0 0.00 1.68 1.68 96 1016.3
20260507220035 54 37 2.0 4.0 0.01 1.68 1.68 96 1016.6
20260507214534 54 20 3.0 6.0 0.05 1.68 1.68 96 1016.5
20260507213040 53 65 2.0 8.0 0.11 1.68 1.68 96 1016.7
20260507211536 53 37 4.0 7.0 0.14 1.68 1.68 96 1017.0
20260507210033 53 63 6.0 11.0 0.13 1.67 1.67 96 1016.3
20260507204534 53 0 4.0 8.0 0.13 1.63 1.63 96 1017.5
20260507203035 53 30 1.0 7.0 0.33 1.57 1.57 96 1017.6
20260507201541 54 289 2.0 8.0 0.54 1.54 1.54 96 1018.3
20260507200038 55 65 4.0 9.0 0.57 1.54 1.54 96 1017.4
20260507194542 53 150 6.0 12.0 0.52 1.49 1.49 96 1018.1